TimeEST,TemperatureF,Dew PointF,Humidity,Sea Level PressureIn,VisibilityMPH,Wind Direction,Wind SpeedMPH,Gust SpeedMPH,PrecipitationIn,Events,Conditions,WindDirDegrees,DateUTC
12:35 AM,40.3,32.9,75,30.50,10.0,Calm,Calm,-,N/A,,Clear,0,2013-01-11 05:35:00
12:55 AM,37.8,32.2,80,30.49,10.0,Calm,Calm,-,N/A,,Clear,0,2013-01-11 05:55:00
1:15 AM,37.0,32.4,83,30.49,10.0,Calm,Calm,-,N/A,,Clear,0,2013-01-11 06:15:00
1:35 AM,37.2,32.9,84,30.49,10.0,Calm,Calm,-,N/A,,Clear,0,2013-01-11 06:35:00
1:55 AM,37.4,32.5,83,30.49,10.0,Calm,Calm,-,N/A,,Clear,0,2013-01-11 06:55:00
2:15 AM,36.7,32.4,84,30.48,10.0,Calm,Calm,-,N/A,,Clear,0,2013-01-11 07:15:00
2:35 AM,36.7,32.2,84,30.48,10.0,Calm,Calm,-,N/A,,Clear,0,2013-01-11 07:35:00
2:55 AM,36.5,32.2,84,30.47,10.0,Calm,Calm,-,N/A,,Clear,0,2013-01-11 07:55:00
3:15 AM,36.1,32.0,85,30.47,10.0,Calm,Calm,-,N/A,,Clear,0,2013-01-11 08:15:00
3:35 AM,35.6,32.2,87,30.47,10.0,Calm,Calm,-,N/A,,Clear,0,2013-01-11 08:35:00
3:55 AM,35.6,32.0,87,30.46,10.0,Calm,Calm,-,N/A,,Clear,0,2013-01-11 08:55:00
4:15 AM,34.7,31.6,89,30.45,10.0,Calm,Calm,-,N/A,,Clear,0,2013-01-11 09:15:00
4:35 AM,35.6,32.0,87,30.45,10.0,Calm,Calm,-,N/A,,Clear,0,2013-01-11 09:35:00
4:55 AM,35.2,32.2,89,30.44,10.0,Calm,Calm,-,N/A,,Clear,0,2013-01-11 09:55:00
5:15 AM,35.6,32.2,87,30.44,10.0,Calm,Calm,-,N/A,,Mostly Cloudy,0,2013-01-11 10:15:00
5:35 AM,36.7,33.3,87,30.45,10.0,Calm,Calm,-,N/A,,Overcast,0,2013-01-11 10:35:00
5:55 AM,37.4,33.6,86,30.44,10.0,Calm,Calm,-,N/A,,Overcast,0,2013-01-11 10:55:00
6:15 AM,37.6,33.8,86,30.42,10.0,Calm,Calm,-,N/A,,Overcast,0,2013-01-11 11:15:00
6:35 AM,37.9,33.6,84,30.42,10.0,Calm,Calm,-,N/A,,Mostly Cloudy,0,2013-01-11 11:35:00
6:55 AM,38.3,33.8,84,30.40,10.0,Calm,Calm,-,N/A,,Mostly Cloudy,0,2013-01-11 11:55:00
7:35 AM,39.6,35.1,84,30.40,10.0,Calm,Calm,-,N/A,,Overcast,0,2013-01-11 12:35:00
7:55 AM,39.7,35.2,84,30.41,10.0,Calm,Calm,-,N/A,,Scattered Clouds,0,2013-01-11 12:55:00
8:15 AM,40.3,36.1,85,30.40,10.0,Calm,Calm,-,N/A,,Mostly Cloudy,0,2013-01-11 13:15:00
8:35 AM,42.3,35.6,77,30.41,10.0,Calm,Calm,-,N/A,,Overcast,0,2013-01-11 13:35:00
8:55 AM,42.8,35.6,76,30.40,10.0,Calm,Calm,-,N/A,,Mostly Cloudy,0,2013-01-11 13:55:00
9:15 AM,43.3,36.0,75,30.40,10.0,Calm,Calm,-,N/A,,Mostly Cloudy,0,2013-01-11 14:15:00
9:35 AM,43.7,36.3,75,30.38,10.0,ESE,4.6,-,N/A,,Overcast,120,2013-01-11 14:35:00
9:55 AM,43.7,36.5,76,30.38,10.0,Calm,Calm,-,N/A,,Mostly Cloudy,0,2013-01-11 14:55:00
10:15 AM,44.1,36.5,75,30.39,10.0,Calm,Calm,-,N/A,,Overcast,0,2013-01-11 15:15:00
10:35 AM,44.8,36.5,73,30.37,10.0,Calm,Calm,-,N/A,,Overcast,0,2013-01-11 15:35:00
10:55 AM,44.8,36.9,74,30.35,10.0,Calm,Calm,-,N/A,Rain,Light Rain,0,2013-01-11 15:55:00
11:15 AM,44.6,37.8,77,30.34,10.0,Calm,Calm,-,N/A,Rain,Light Rain,0,2013-01-11 16:15:00
11:35 AM,43.9,39.4,84,30.32,4.0,Calm,Calm,-,0.01,Rain,Light Rain,0,2013-01-11 16:35:00
11:55 AM,43.9,40.1,87,30.31,10.0,Calm,Calm,-,0.01,Rain,Light Rain,0,2013-01-11 16:55:00
12:15 PM,43.9,40.1,87,30.28,10.0,SE,3.5,-,N/A,Rain,Light Rain,140,2013-01-11 17:15:00
12:35 PM,44.4,41.4,89,30.26,10.0,Calm,Calm,-,N/A,Rain,Light Rain,0,2013-01-11 17:35:00
12:55 PM,44.8,42.8,93,30.25,10.0,Calm,Calm,-,N/A,,Overcast,0,2013-01-11 17:55:00
1:15 PM,44.6,42.4,92,30.24,10.0,Calm,Calm,-,N/A,,Overcast,0,2013-01-11 18:15:00
1:35 PM,44.8,43.3,95,30.23,4.0,Calm,Calm,-,N/A,,Light Drizzle,0,2013-01-11 18:35:00
1:55 PM,45.0,43.9,96,30.23,5.0,Calm,Calm,-,N/A,,Overcast,0,2013-01-11 18:55:00
2:15 PM,45.0,44.1,97,30.22,7.0,Calm,Calm,-,N/A,,Overcast,0,2013-01-11 19:15:00
2:35 PM,45.1,44.6,98,30.21,7.0,Calm,Calm,-,N/A,,Overcast,0,2013-01-11 19:35:00
2:55 PM,45.5,44.8,97,30.20,7.0,Calm,Calm,-,N/A,,Overcast,0,2013-01-11 19:55:00
3:15 PM,45.5,44.8,97,30.19,4.0,Calm,Calm,-,N/A,Rain,Light Rain,0,2013-01-11 20:15:00
3:35 PM,45.5,45.0,98,30.19,4.0,Calm,Calm,-,0.01,,Overcast,0,2013-01-11 20:35:00
3:55 PM,45.5,45.1,99,30.19,2.5,Calm,Calm,-,0.01,,Overcast,0,2013-01-11 20:55:00
4:15 PM,45.5,45.5,100,30.19,2.5,Calm,Calm,-,N/A,Rain,Light Rain,0,2013-01-11 21:15:00
4:35 PM,45.3,45.3,100,30.17,1.2,Calm,Calm,-,N/A,,Overcast,0,2013-01-11 21:35:00
4:55 PM,45.1,45.1,100,30.16,1.0,Calm,Calm,-,0.01,Rain,Rain,0,2013-01-11 21:55:00
5:15 PM,45.5,45.5,100,30.15,1.5,Calm,Calm,-,0.03,Rain,Rain,0,2013-01-11 22:15:00
5:35 PM,45.5,45.5,100,30.15,2.0,South,3.5,-,0.03,,Overcast,180,2013-01-11 22:35:00
5:55 PM,45.5,45.5,100,30.14,3.0,Calm,Calm,-,0.03,,Overcast,0,2013-01-11 22:55:00
6:15 PM,45.5,45.5,100,30.14,4.0,Calm,Calm,-,N/A,,Overcast,0,2013-01-11 23:15:00
6:35 PM,45.7,45.7,100,30.13,5.0,SSW,4.6,-,N/A,,Overcast,210,2013-01-11 23:35:00
6:55 PM,45.9,45.9,100,30.13,7.0,SSW,3.5,-,N/A,,Overcast,200,2013-01-11 23:55:00
7:15 PM,46.0,46.0,100,30.13,7.0,South,5.8,-,N/A,,Overcast,180,2013-01-12 00:15:00
7:35 PM,46.0,46.0,100,30.13,7.0,Calm,Calm,-,N/A,,Overcast,0,2013-01-12 00:35:00
7:55 PM,46.0,46.0,100,30.13,7.0,Calm,Calm,-,N/A,,Overcast,0,2013-01-12 00:55:00
8:15 PM,46.4,46.4,100,30.13,5.0,Calm,Calm,-,N/A,,Overcast,0,2013-01-12 01:15:00
8:35 PM,46.2,46.2,100,30.12,7.0,Calm,Calm,-,N/A,,Overcast,0,2013-01-12 01:35:00
8:55 PM,46.4,46.4,100,30.12,7.0,Calm,Calm,-,N/A,,Overcast,0,2013-01-12 01:55:00
9:15 PM,46.4,46.4,100,30.12,7.0,Calm,Calm,-,N/A,,Overcast,0,2013-01-12 02:15:00
9:35 PM,46.4,46.4,100,30.11,7.0,Calm,Calm,-,N/A,,Overcast,0,2013-01-12 02:35:00
9:55 PM,46.4,46.4,100,30.11,7.0,South,3.5,-,N/A,,Overcast,190,2013-01-12 02:55:00
10:15 PM,46.9,46.8,99,30.11,7.0,WSW,3.5,-,N/A,,Overcast,240,2013-01-12 03:15:00
10:35 PM,46.9,46.8,99,30.11,7.0,West,3.5,-,N/A,,Overcast,260,2013-01-12 03:35:00
10:55 PM,47.3,46.8,98,30.11,7.0,West,3.5,-,N/A,,Overcast,260,2013-01-12 03:55:00
11:15 PM,47.3,46.8,98,30.10,7.0,Calm,Calm,-,N/A,,Overcast,0,2013-01-12 04:15:00
11:35 PM,47.3,46.9,99,30.10,7.0,WSW,4.6,-,N/A,,Overcast,240,2013-01-12 04:35:00
11:55 PM,47.3,46.8,98,30.10,7.0,West,5.8,-,N/A,,Overcast,270,2013-01-12 04:55:00